Regional Weather Roundup
Issued by NWS

Home | Current Version | Previous Version | Text Only | Print | Product List | Glossary On
Versions: 1 2 3 4 5 6 7 8 9 10 11 12 13 14 15 16 17 18 19 20 21 22 23 24 25 26 27 28 29 30 31 32 33 34 35 36 37 38 39 40 41 42 43 44 45 46 47 48 49 50
000
ASUS43 KDMX 241103
RWRIA

WEATHER ROUNDUP FOR IOWA
NATIONAL WEATHER SERVICE DES MOINES IA
600 AM CDT SUN JUL 24 2016

NOTE: "FAIR" INDICATES FEW OR NO CLOUDS BELOW 12,000 FEET WITH NO
SIGNIFICANT WEATHER AND/OR OBSTRUCTIONS TO VISIBILITY.

* - THESE STATIONS ARE NOT NWS STATIONS...THUS NOT UNDER NWS
QUALITY CONTROL.  THEY ALSO DO NOT REPORT WEATHER SUCH
AS PRECIPITATION OR FOG.

IAZ001>003-012>014-020>022-031>034-043>046-241200-
   NORTHWEST IOWA

CITY           SKY/WX    TMP DP  RH WIND       PRES   REMARKS
CARROLL *      CLOUDY    79  77  94 N14       29.85R HX  83
CHEROKEE *     CLEAR     73  71  94 N9        29.88R
DENISON *      CLEAR     77  73  88 N10       29.85R
LE MARS *      CLEAR     68  66  94 CALM      29.91R
SHELDON *      CLEAR     68  68 100 NW3       29.89R
SIOUX CITY     CLEAR     75  64  68 N10       29.89R
SPENCER        CLEAR     70  65  84 NW9       29.87R
STORM LAKE *   CLEAR     73  70  88 N10       29.88R
$$

IAZ055>058-069>071-079>083-090>094-241200-
   SOUTHWEST IOWA

CITY           SKY/WX    TMP DP  RH WIND       PRES   REMARKS
ATLANTIC *     PTCLDY    73  72  94 CALM      29.85R
CLARINDA *       N/A     72  72 100 MISG      29.88R
COUNCIL BLFS * MOCLDY    77  75  94 N9        29.87R
CRESTON *      CLEAR     75  73  94 SW3       29.88R
HARLAN  *      PTCLDY    73  73 100 CALM      29.89R
LAMONI         MOCLDY    77  75  93 S7        29.86R
RED OAK *      CLEAR     73  72  94 CALM      29.85R
SHENANDOAH *   PTCLDY    73  73 100 CALM      29.85S
$$

IAZ047>049-059>061-072>074-084-241200-
   CENTRAL IOWA

CITY           SKY/WX    TMP DP  RH WIND       PRES   REMARKS
AMES           CLEAR     74  74 100 VRB3      29.83R
ANKENY *         N/A    N/A N/A N/A MISG        N/A
BOONE *        CLEAR     75  73  94 SW6       29.83S
CHARITON *       N/A    N/A N/A N/A MISG        N/A
DES MOINES     CLOUDY    79  75  87 S3        29.82S HX  83
GRINNELL*      CLEAR     76  73  89 S6        29.85R
KNOXVILLE *    PTCLDY    79  73  83 S9        29.82S HX  82
MARSHALLTOWN   CLEAR     78  75  90 SW7       29.83R HX  81
NEWTON *       CLEAR     77  75  94 SW7       29.83S
PELLA *        CLOUDY    78  73  84 S3        29.84S HX  80
PERRY *          N/A     74  73  98 CALM      29.84R
$$

IAZ004>006-015-016-023>025-035-036-241200-
   NORTH CENTRAL IOWA

CITY           SKY/WX    TMP DP  RH WIND       PRES   REMARKS
ALGONA *       CLEAR     75  72  88 NW7       29.85R
ESTHERVILLE    CLEAR     71  68  90 NW10      29.86R
FORT DODGE *   PTCLDY    75  73  94 CALM      29.85R
MASON CITY     PTCLDY    77  75  93 W8        29.83S
FOREST CITY *  CLOUDY    77  77 100 NW12      29.83R
IOWA FALLS *     N/A     77  73  87 W7        29.85R
$$

IAZ007>011-017>019-026>030-037>042-050>054-066-241200-
   NORTHEAST IOWA

CITY           SKY/WX    TMP DP  RH WIND       PRES   REMARKS
CEDAR RAPIDS   PTCLDY    78  78 100 S9        29.83S HX  81
CHARLES CITY * MOCLDY    75  75 100 SW5       29.83R
CLINTON *      CLEAR     76  75  97 S7        29.87S
DECORAH *      CLOUDY    75  75 100 SW8       29.80S
DUBUQUE        MOCLDY    75  75 100 S10       29.85S FOG
MONTICELLO *   CLEAR     79  77  94 S10       29.83F HX  83
OELWEIN *      CLOUDY    75  75 100 S7        29.83S
WATERLOO       CLEAR     77  74  90 S7        29.80S
$$

IAZ064-065-067-068-078-241200-
   EAST CENTRAL IOWA

CITY           SKY/WX    TMP DP  RH WIND       PRES   REMARKS
DAVENPORT      CLEAR     79  75  87 S9        29.87S HX  83
IOWA CITY      PTCLDY    78  77  96 S6        29.86S HX  81
MT. PLEASANT * CLEAR     79  79  99 S6        29.87S HX  84
MUSCATINE *    CLEAR     79  75  89 S6        29.85F HX  82
QUAD CITIES    CLEAR     80  75  84 S9        29.85S HX  85
$$

IAZ062-063-075>077-085>089-095>099-241200-
   SOUTHEAST IOWA

CITY           SKY/WX    TMP DP  RH WIND       PRES   REMARKS
BURLINGTON     CLEAR     77  76  96 S8        29.87F
FAIRFIELD *    PTCLDY    79  75  89 S8        29.85F HX  82
KEOKUK *       CLEAR     79  75  89 S9        29.87S HX  82
OSKALOOSA *      N/A     75  74  95 S6        29.85S
CENTERVILLE *    N/A     77  73  88 CALM      29.88S
OTTUMWA        CLEAR     78  74  87 S9        29.84F HX  81
WASHINGTON *   CLEAR     79  77  94 S8        29.86F HX  83
$$

ABBREVIATIONS USED IN REMARKS
   TC - TEMPERATURES IN CELSIUS
  WCI - WIND CHILL INDEX
   HX - HEAT INDEX
  VSB - VISIBILITY
$$





USA.gov is the U.S. government's official web portal to all federal, state and local government web resources and services.